Satellite: ISS
Catalog number: 25544
Epoch time:      10057.07319131
Element set:     652
Inclination:      051.6465 deg
RA of node:       081.0210 deg
Eccentricity:    0.0007015
Arg of perigee:   346.8094 deg
Mean anomaly:     056.6118 deg
Mean motion:   15.73423637 rev/day
Decay rate:     1.3464e-04 rev/day^2
Epoch rev:           64597
Checksum:              281

Satellite: CO-58
Catalog number: 28895
Epoch time:      10055.85040875
Element set:     520
Inclination:      098.0324 deg
RA of node:       303.9496 deg
Eccentricity:    0.0016833
Arg of perigee:   277.8875 deg
Mean anomaly:     082.0448 deg
Mean motion:   14.59850529 rev/day
Decay rate:        8.5e-07 rev/day^2
Epoch rev:           23059
Checksum:              342

Satellite: FALCON
Catalog number: 30776
Epoch time:      10056.92657078
Element set:     773
Inclination:      035.4339 deg
RA of node:       359.6990 deg
Eccentricity:    0.0001964
Arg of perigee:   307.8277 deg
Mean anomaly:     052.2265 deg
Mean motion:   15.03494358 rev/day
Decay rate:      1.014e-05 rev/day^2
Epoch rev:           16330
Checksum:              309

Satellite: MAST
Catalog number: 31126
Epoch time:      10056.70639820
Element set:     806
Inclination:      097.9531 deg
RA of node:       104.4054 deg
Eccentricity:    0.0093843
Arg of perigee:   212.3131 deg
Mean anomaly:     147.2292 deg
Mean motion:   14.53557068 rev/day
Decay rate:        7.3e-07 rev/day^2
Epoch rev:           15186
Checksum:              278

Satellite: CAPE1
Catalog number: 31130
Epoch time:      10056.64970098
Element set:     823
Inclination:      097.9546 deg
RA of node:       101.9865 deg
Eccentricity:    0.0102140
Arg of perigee:   219.5774 deg
Mean anomaly:     139.7938 deg
Mean motion:   14.52139914 rev/day
Decay rate:       1.94e-06 rev/day^2
Epoch rev:           15147
Checksum:              310

Satellite: COMPASS
Catalog number: 32787
Epoch time:      10055.80677561
Element set:     604
Inclination:      097.9058 deg
RA of node:       122.0514 deg
Eccentricity:    0.0014972
Arg of perigee:   293.7863 deg
Mean anomaly:     066.1794 deg
Mean motion:   14.81769642 rev/day
Decay rate:       3.41e-06 rev/day^2
Epoch rev:            9885
Checksum:              330

Satellite: AAUSAT2
Catalog number: 32788
Epoch time:      10056.83325805
Element set:     599
Inclination:      097.9100 deg
RA of node:       123.1742 deg
Eccentricity:    0.0014485
Arg of perigee:   291.3132 deg
Mean anomaly:     068.6454 deg
Mean motion:   14.81908847 rev/day
Decay rate:       7.68e-06 rev/day^2
Epoch rev:            9901
Checksum:              320

Satellite: DO-64
Catalog number: 32789
Epoch time:      10056.71552613
Element set:     615
Inclination:      097.9140 deg
RA of node:       123.4110 deg
Eccentricity:    0.0014577
Arg of perigee:   288.4783 deg
Mean anomaly:     071.4818 deg
Mean motion:   14.81981861 rev/day
Decay rate:       5.15e-06 rev/day^2
Epoch rev:            9899
Checksum:              331

Satellite: CO-66
Catalog number: 32791
Epoch time:      10056.15070000
Element set:     595
Inclination:      097.9072 deg
RA of node:       122.4172 deg
Eccentricity:    0.0015087
Arg of perigee:   290.7746 deg
Mean anomaly:     069.1880 deg
Mean motion:   14.81576125 rev/day
Decay rate:       6.79e-06 rev/day^2
Epoch rev:            9886
Checksum:              322

Satellite: RS-30
Catalog number: 32953
Epoch time:      10056.65141016
Element set:     534
Inclination:      082.5001 deg
RA of node:       099.0463 deg
Eccentricity:    0.0018593
Arg of perigee:   350.4938 deg
Mean anomaly:     009.5788 deg
Mean motion:   12.43003733 rev/day
Decay rate:        1.0e-07 rev/day^2
Epoch rev:            7988
Checksum:              285

Satellite: TACSAT-3
Catalog number: 35001
Epoch time:      10056.66087079
Element set:     224
Inclination:      040.4542 deg
RA of node:       163.4494 deg
Eccentricity:    0.0023221
Arg of perigee:   252.0084 deg
Mean anomaly:     107.8195 deg
Mean motion:   15.40470883 rev/day
Decay rate:      7.186e-05 rev/day^2
Epoch rev:            4342
Checksum:              271

Satellite: PHARMSAT
Catalog number: 35002
Epoch time:      10055.68450238
Element set:     213
Inclination:      040.4697 deg
RA of node:       167.7582 deg
Eccentricity:    0.0026198
Arg of perigee:   248.8230 deg
Mean anomaly:     110.9784 deg
Mean motion:   15.41108333 rev/day
Decay rate:      6.507e-05 rev/day^2
Epoch rev:            4328
Checksum:              284

Satellite: HAWKSAT1
Catalog number: 35003
Epoch time:      10056.42473523
Element set:     224
Inclination:      040.4603 deg
RA of node:       160.7812 deg
Eccentricity:    0.0025041
Arg of perigee:   260.4057 deg
Mean anomaly:     099.3923 deg
Mean motion:   15.42951636 rev/day
Decay rate:     1.2719e-04 rev/day^2
Epoch rev:            4343
Checksum:              258

Satellite: CP6
Catalog number: 35004
Epoch time:      10056.59674608
Element set:     217
Inclination:      040.4627 deg
RA of node:       159.4616 deg
Eccentricity:    0.0024962
Arg of perigee:   261.1864 deg
Mean anomaly:     098.6125 deg
Mean motion:   15.43356987 rev/day
Decay rate:     1.4676e-04 rev/day^2
Epoch rev:            4345
Checksum:              320

